Regional Weather Roundup
Issued by NWS Green Bay, WI

Home | Current Version | Previous Version | Graphics & Text | Print | Product List | Glossary On
Versions: 1 2 3 4 5 6 7 8 9 10 11 12 13 14 15 16 17 18 19 20 21 22 23 24 25 26 27 28 29 30 31 32 33 34 35 36 37 38 39 40 41 42 43 44 45 46 47 48 49 50
000
ASUS43 KGRB 080911
RWRGRB

NORTH-CENTRAL AND NORTHEAST WISCONSIN REGIONAL WEATHER ROUNDUP
NATIONAL WEATHER SERVICE GREEN BAY WI
300 AM CST MON FEB 08 2016

WIZ005-009-010>012-018-019-081000-
NORTH CENTRAL WISCONSIN

CITY           SKY/WX    TMP DP  RH WIND       PRES   REMARKS
IRONWOOD       CLOUDY    25  21  86 N15       29.58R
MANITOWISH WTR LGT SNOW  26  26 100 N3        29.52R
ARBOR VITAE    LGT SNOW  27  24  89 W5        29.52S
EAGLE RIVER    LGT SNOW  27  26  94 W5        29.51S
LAND O LAKES   LGT SNOW  28  27  95 CALM      29.52S
RHINELANDER    LGT SNOW  26  23  88 W8        29.52S FOG
PHILLIPS       LGT SNOW  22  19  91 NW6       29.56S
ANTIGO         CLOUDY    27  24  89 W12       29.52S
TOMAHAWK       FLURRIES  24  21  87 W6        29.55S
MERRILL        LGT SNOW  26  23  89 NW8       29.56S
$$

WIZ013-073-081000-
NORTHEAST WISCONSIN

CITY           SKY/WX    TMP DP  RH WIND       PRES   REMARKS
IRON MOUNTAIN  FOG       27  27 100 CALM      29.50S VSB 1/2
MARINETTE      CLOUDY    32  27  80 CALM      29.54S
OCONTO         CLOUDY    33  29  86 SW3       29.54S
$$

WIZ017-030-035>037-045-081000-
CENTRAL WISCONSIN

CITY           SKY/WX    TMP DP  RH WIND       PRES   REMARKS
MEDFORD        LGT SNOW  21  19  90 NW9       29.57S
WAUSAU         CLOUDY    27  22  81 NW12      29.55S
MOSINEE        CLOUDY    27  25  93 NW12      29.57S
MARSHFIELD     LGT SNOW  22  16  78 NW13      29.58R WCI  10
WISC RAPIDS    CLOUDY    25  19  78 NW12      29.61R
STEVENS POINT  CLOUDY    25  20  83 W8        29.58S
WAUPACA        CLOUDY    32  25  76 W9        29.58S
SHAWANO        CLOUDY    36  30  81 W5        29.55R
CLINTONVILLE   CLOUDY    32  28  86 W5        29.56R
WAUTOMA        CLOUDY    29  24  81 NW13      29.59S
$$

WIZ038-039-048-051-081000-
FOX VALLEY

CITY           SKY/WX    TMP DP  RH WIND       PRES   REMARKS
NWS GREEN BAY  CLOUDY    34  29  82 S3        29.55S
APPLETON       CLOUDY    32  32 100 W12       29.54S
OSHKOSH        CLOUDY    32  27  81 NW14      29.56S
FOND DU LAC    LGT SNOW  33  30  88 NW14      29.57R FOG
$$

WIZ022-050-052-081000-
EAST CENTRAL WISCONSIN

CITY           SKY/WX    TMP DP  RH WIND       PRES   REMARKS
EPHRAIM        CLOUDY    33  27  79 SW3       29.53S
STURGEON BAY   CLOUDY    34  27  75 SW5       29.56F
MANITOWOC      CLOUDY    33  28  81 SW6       29.56F
SHEBOYGAN      CLOUDY    31  26  82 SW6       29.56F
$$

LMZ563-521-522-541>543-081000-
LAKESHORE

STATION/POSITION TIME  TEMP    WIND        PRES    VSBY  WAVE
                       AIR SEA DIR/SP/G                  HT/PER
                 (UTC) (F)     (DEG/KT/KT) (MB)    (MI)  (FT/S)
SHEBOYGAN LKSHOR 0900   33     240/  8/  9 1001.8F
KEWAUNEE LKSHORE 0800   34     250/  4/  7 1000.3F
NORTHPORT PIER   0800   35      CALM  /  4 1000.7F
CHAMBERS ISLAND  0840   33     210/  5/  7 1000.7F
MENOMINEE LKSHOR 0800   33     190/  4      999.5F
$$



USA.gov is the U.S. government's official web portal to all federal, state and local government web resources and services.